VOZ495 YSSY-YBSU

Flight info

Callsign VOZ495
Flight time 1h 22m
Altitude 35000
Route TESAT H252 OLSEM Y193 BANDA H252 GOMOL Q69 SU
Aircraft B738/M-SAE3DGHIM1RWZ/LB1

Departure

Time 2026-05-04 04:33
Airport Sydney Kingsford Smith International Airport (YSSY)

Arrival

Time 2026-05-04 05:55
Airport Sunshine Coast Airport (YBSU)
Time Latitude Longitude Altitude Speed Heading
2026-05-04 04:00 -33.93625 151.17891 29 ft 0 kts 99°
2026-05-04 04:11 -33.93623 151.17877 47 ft 4 kts 98°
2026-05-04 04:11 -33.93618 151.17845 24 ft 4 kts 106°
2026-05-04 04:11 -33.93609 151.17822 29 ft 4 kts 174°
2026-05-04 04:12 -33.93605 151.17822 21 ft 0 kts 190°
2026-05-04 04:16 -33.93615 151.17819 29 ft 3 kts 190°
2026-05-04 04:16 -33.93638 151.17814 29 ft 3 kts 191°
2026-05-04 04:16 -33.93661 151.17808 29 ft 3 kts 194°
2026-05-04 04:16 -33.93685 151.17801 29 ft 4 kts 194°
2026-05-04 04:17 -33.93720 151.17790 29 ft 6 kts 194°
2026-05-04 04:17 -33.93757 151.17779 29 ft 6 kts 194°
2026-05-04 04:17 -33.93807 151.17765 29 ft 9 kts 189°
2026-05-04 04:17 -33.93868 151.17770 29 ft 9 kts 166°
2026-05-04 04:18 -33.93926 151.17787 28 ft 9 kts 167°
2026-05-04 04:18 -33.93983 151.17801 28 ft 8 kts 168°
2026-05-04 04:18 -33.94039 151.17815 28 ft 8 kts 167°
2026-05-04 04:18 -33.94092 151.17829 28 ft 8 kts 169°
2026-05-04 04:19 -33.94145 151.17843 28 ft 8 kts 168°
2026-05-04 04:19 -33.94208 151.17859 29 ft 11 kts 167°
2026-05-04 04:19 -33.94294 151.17882 29 ft 14 kts 167°
2026-05-04 04:19 -33.94402 151.17910 29 ft 17 kts 168°
2026-05-04 04:20 -33.94512 151.17883 29 ft 16 kts 181°
2026-05-04 04:20 -33.94620 151.17908 29 ft 16 kts 167°
2026-05-04 04:20 -33.94715 151.17932 29 ft 14 kts 169°
2026-05-04 04:20 -33.94805 151.17955 29 ft 13 kts 168°
2026-05-04 04:21 -33.94892 151.17978 29 ft 13 kts 167°
2026-05-04 04:21 -33.94977 151.18000 29 ft 12 kts 169°
2026-05-04 04:21 -33.95054 151.18019 29 ft 9 kts 167°
2026-05-04 04:21 -33.95098 151.18067 29 ft 9 kts 107°
2026-05-04 04:22 -33.95093 151.18141 29 ft 10 kts 78°
2026-05-04 04:22 -33.95079 151.18220 29 ft 10 kts 78°
2026-05-04 04:22 -33.95065 151.18297 29 ft 9 kts 77°
2026-05-04 04:22 -33.95051 151.18371 29 ft 9 kts 77°
2026-05-04 04:23 -33.95039 151.18444 29 ft 9 kts 90°
2026-05-04 04:23 -33.95067 151.18505 29 ft 9 kts 143°
2026-05-04 04:23 -33.95115 151.18543 29 ft 8 kts 141°
2026-05-04 04:23 -33.95157 151.18590 29 ft 8 kts 137°
2026-05-04 04:24 -33.95197 151.18635 29 ft 8 kts 137°
2026-05-04 04:24 -33.95240 151.18677 29 ft 8 kts 146°
2026-05-04 04:24 -33.95292 151.18708 29 ft 9 kts 161°
2026-05-04 04:24 -33.95361 151.18730 29 ft 11 kts 167°
2026-05-04 04:25 -33.95434 151.18749 29 ft 11 kts 167°
2026-05-04 04:25 -33.95506 151.18768 29 ft 10 kts 168°
2026-05-04 04:25 -33.95575 151.18786 29 ft 10 kts 168°
2026-05-04 04:25 -33.95644 151.18804 29 ft 10 kts 171°
2026-05-04 04:26 -33.95714 151.18822 29 ft 10 kts 168°
2026-05-04 04:26 -33.95782 151.18840 29 ft 10 kts 167°
2026-05-04 04:26 -33.95848 151.18857 29 ft 10 kts 168°
2026-05-04 04:26 -33.95918 151.18875 29 ft 11 kts 168°
2026-05-04 04:27 -33.95995 151.18895 29 ft 11 kts 167°
2026-05-04 04:27 -33.96069 151.18913 29 ft 11 kts 168°
2026-05-04 04:27 -33.96142 151.18932 29 ft 10 kts 168°
2026-05-04 04:27 -33.96212 151.18951 29 ft 10 kts 167°
2026-05-04 04:28 -33.96280 151.18969 29 ft 10 kts 167°
2026-05-04 04:28 -33.96347 151.18987 29 ft 10 kts 167°
2026-05-04 04:28 -33.96412 151.19003 29 ft 9 kts 168°
2026-05-04 04:28 -33.96480 151.19022 29 ft 11 kts 167°
2026-05-04 04:29 -33.96557 151.19042 29 ft 11 kts 171°
2026-05-04 04:29 -33.96634 151.19060 29 ft 11 kts 167°
2026-05-04 04:29 -33.96708 151.19074 29 ft 11 kts 182°
2026-05-04 04:29 -33.96780 151.19062 29 ft 10 kts 186°
2026-05-04 04:30 -33.96850 151.19072 29 ft 10 kts 167°
2026-05-04 04:30 -33.96917 151.19089 29 ft 10 kts 168°
2026-05-04 04:30 -33.96983 151.19106 29 ft 10 kts 168°
2026-05-04 04:30 -33.97044 151.19124 29 ft 8 kts 157°
2026-05-04 04:31 -33.97059 151.19184 29 ft 6 kts 80°
2026-05-04 04:31 -33.97055 151.19210 28 ft 0 kts 79°
2026-05-04 04:32 -33.97054 151.19212 28 ft 1 kts 79°
2026-05-04 04:32 -33.97044 151.19274 26 ft 11 kts 78°
2026-05-04 04:32 -33.97015 151.19351 26 ft 10 kts 25°
2026-05-04 04:32 -33.96976 151.19348 26 ft 5 kts 347°
2026-05-04 04:33 -33.96671 151.19272 22 ft 85 kts 347°
2026-05-04 04:33 -33.95859 151.19062 28 ft 152 kts 347°
2026-05-04 04:33 -33.95118 151.18847 257 ft 170 kts 349°
2026-05-04 04:33 -33.93946 151.18677 1234 ft 164 kts
2026-05-04 04:34 -33.92843 151.19170 1964 ft 184 kts 27°
2026-05-04 04:34 -33.91697 151.20129 2241 ft 215 kts 33°
2026-05-04 04:34 -33.90435 151.21259 2575 ft 237 kts 33°
2026-05-04 04:34 -33.88551 151.22933 3146 ft 260 kts 33°
2026-05-04 04:35 -33.87591 151.23780 3822 ft 258 kts 32°
2026-05-04 04:35 -33.86143 151.25049 4816 ft 258 kts 31°
2026-05-04 04:35 -33.84681 151.26329 5685 ft 262 kts 32°
2026-05-04 04:35 -33.83410 151.28053 6067 ft 296 kts 56°
2026-05-04 04:36 -33.82574 151.30451 6386 ft 324 kts 66°
2026-05-04 04:36 -33.81857 151.33067 7031 ft 334 kts 68°
2026-05-04 04:36 -33.81143 151.35739 7886 ft 334 kts 66°
2026-05-04 04:36 -33.80008 151.38153 8664 ft 331 kts 47°
2026-05-04 04:37 -33.75477 151.44705 10890 ft 346 kts 46°
2026-05-04 04:37 -33.73947 151.46952 11651 ft 349 kts 47°
2026-05-04 04:38 -33.72405 151.49228 12350 ft 353 kts 47°
2026-05-04 04:38 -33.70844 151.51536 13047 ft 358 kts 47°
2026-05-04 04:38 -33.69268 151.53871 13782 ft 361 kts 47°
2026-05-04 04:38 -33.67675 151.56228 14411 ft 365 kts 47°
2026-05-04 04:39 -33.66061 151.58612 15026 ft 370 kts 47°
2026-05-04 04:39 -33.64327 151.60905 15611 ft 371 kts 36°
2026-05-04 04:39 -33.62229 151.62684 16258 ft 369 kts 28°
2026-05-04 04:39 -33.60046 151.64335 16888 ft 372 kts 28°
2026-05-04 04:40 -33.57844 151.65999 17592 ft 374 kts 28°
2026-05-04 04:40 -33.55647 151.67692 18225 ft 377 kts 28°
2026-05-04 04:40 -33.53429 151.69423 18630 ft 385 kts 28°
2026-05-04 04:40 -33.51160 151.71199 19065 ft 391 kts 28°
2026-05-04 04:41 -33.48773 151.72723 19636 ft 388 kts 18°
2026-05-04 04:41 -33.46223 151.73705 20222 ft 385 kts 10°
2026-05-04 04:41 -33.43616 151.74497 20742 ft 388 kts
2026-05-04 04:41 -33.40988 151.75305 21246 ft 391 kts 10°
2026-05-04 04:42 -33.38341 151.76146 21738 ft 395 kts 10°
2026-05-04 04:42 -33.35687 151.77003 22242 ft 398 kts 10°
2026-05-04 04:42 -33.33002 151.77871 22698 ft 401 kts
2026-05-04 04:42 -33.30277 151.78751 23054 ft 408 kts
2026-05-04 04:43 -33.27523 151.79639 23521 ft 410 kts
2026-05-04 04:43 -33.24757 151.80531 23962 ft 411 kts
2026-05-04 04:43 -33.21986 151.81426 24453 ft 411 kts
2026-05-04 04:43 -33.19227 151.82317 24920 ft 412 kts
2026-05-04 04:44 -33.16455 151.83210 25354 ft 413 kts
2026-05-04 04:44 -33.13670 151.84106 25771 ft 414 kts
2026-05-04 04:44 -33.10884 151.85002 26160 ft 415 kts
2026-05-04 04:44 -33.08088 151.85900 26542 ft 417 kts
2026-05-04 04:45 -33.05274 151.86803 26937 ft 418 kts
2026-05-04 04:45 -33.02461 151.87707 27364 ft 419 kts
2026-05-04 04:45 -32.99643 151.88611 27761 ft 419 kts
2026-05-04 04:47 -32.82549 151.94077 29614 ft 432 kts
2026-05-04 04:47 -32.79628 151.95007 29853 ft 435 kts
2026-05-04 04:47 -32.76706 151.95941 30300 ft 433 kts
2026-05-04 04:47 -32.73803 151.96872 30743 ft 430 kts
2026-05-04 04:48 -32.70919 151.97794 31050 ft 430 kts
2026-05-04 04:49 -32.59315 152.01487 32253 ft 431 kts
2026-05-04 04:49 -32.56413 152.02407 32543 ft 432 kts
2026-05-04 04:49 -32.53514 152.03325 32837 ft 432 kts
2026-05-04 04:49 -32.50609 152.04246 33148 ft 431 kts
2026-05-04 04:50 -32.47710 152.05165 33443 ft 431 kts
2026-05-04 04:50 -32.44809 152.06084 33695 ft 432 kts
2026-05-04 04:50 -32.41898 152.07000 33829 ft 434 kts
2026-05-04 04:50 -32.38978 152.07924 34070 ft 435 kts
2026-05-04 04:51 -32.36059 152.08850 34363 ft 433 kts
2026-05-04 04:51 -32.33153 152.09771 34660 ft 432 kts
2026-05-04 04:51 -32.30250 152.10689 34895 ft 432 kts
2026-05-04 04:51 -32.27335 152.11607 35023 ft 434 kts
2026-05-04 04:52 -32.21461 152.13433 34982 ft 435 kts
2026-05-04 04:52 -32.15615 152.15265 35019 ft 435 kts
2026-05-04 04:53 -32.09789 152.17122 35034 ft 433 kts
2026-05-04 04:53 -32.03972 152.18957 35030 ft 432 kts
2026-05-04 04:54 -31.98173 152.20775 35022 ft 431 kts
2026-05-04 04:54 -31.92376 152.22600 35019 ft 432 kts
2026-05-04 04:55 -31.86528 152.24412 35029 ft 432 kts
2026-05-04 04:55 -31.80717 152.26226 35031 ft 433 kts
2026-05-04 04:56 -31.74888 152.28043 35025 ft 433 kts
2026-05-04 04:56 -31.69046 152.29863 35034 ft 435 kts
2026-05-04 04:57 -31.63175 152.31688 35034 ft 437 kts
2026-05-04 04:57 -31.57273 152.33520 35039 ft 439 kts
2026-05-04 04:58 -31.51362 152.35355 35031 ft 440 kts
2026-05-04 04:58 -31.45425 152.37189 35045 ft 441 kts
2026-05-04 04:59 -31.39507 152.39024 35046 ft 442 kts
2026-05-04 04:59 -31.33545 152.40870 35044 ft 443 kts
2026-05-04 05:00 -31.27590 152.42722 35039 ft 443 kts
2026-05-04 05:01 -31.18649 152.45462 35045 ft 442 kts
2026-05-04 05:01 -31.12706 152.47198 35049 ft 439 kts
2026-05-04 05:02 -31.06784 152.49066 35040 ft 442 kts
2026-05-04 05:02 -31.00833 152.50928 35069 ft 443 kts
2026-05-04 05:03 -30.94844 152.52771 35057 ft 445 kts
2026-05-04 05:04 -30.82975 152.56404 35041 ft 438 kts
2026-05-04 05:04 -30.77093 152.58253 35044 ft 438 kts
2026-05-04 05:06 -30.54436 152.66578 35071 ft 448 kts
2026-05-04 05:07 -30.48477 152.68722 35053 ft 447 kts
2026-05-04 05:07 -30.42520 152.70881 35064 ft 448 kts
2026-05-04 05:09 -30.15696 152.80522 35053 ft 449 kts
2026-05-04 05:10 -30.09734 152.82660 35074 ft 449 kts
2026-05-04 05:10 -30.03770 152.84803 35071 ft 449 kts
2026-05-04 05:11 -29.97809 152.86936 35079 ft 449 kts
2026-05-04 05:11 -29.91830 152.89071 35063 ft 449 kts
2026-05-04 05:12 -29.85850 152.91201 35063 ft 449 kts
2026-05-04 05:12 -29.79866 152.93331 35077 ft 450 kts
2026-05-04 05:13 -29.73881 152.95460 35076 ft 450 kts
2026-05-04 05:13 -29.67888 152.97589 35047 ft 451 kts
2026-05-04 05:14 -29.61908 152.99712 35065 ft 450 kts
2026-05-04 05:14 -29.55919 153.01835 35079 ft 450 kts
2026-05-04 05:15 -29.49925 153.03956 35078 ft 450 kts
2026-05-04 05:15 -29.43935 153.06074 35062 ft 451 kts
2026-05-04 05:16 -29.37937 153.08193 35077 ft 451 kts
2026-05-04 05:16 -29.31940 153.10308 35080 ft 451 kts
2026-05-04 05:17 -29.25931 153.12424 35077 ft 451 kts
2026-05-04 05:17 -29.19932 153.14535 35059 ft 451 kts
2026-05-04 05:18 -29.13928 153.16645 35074 ft 451 kts
2026-05-04 05:18 -29.07925 153.18752 35085 ft 451 kts
2026-05-04 05:19 -29.01914 153.20860 35082 ft 452 kts
2026-05-04 05:19 -28.95900 153.22966 35065 ft 452 kts
2026-05-04 05:20 -28.89882 153.25071 35082 ft 452 kts
2026-05-04 05:20 -28.83860 153.27175 35080 ft 453 kts
2026-05-04 05:21 -28.77828 153.29280 35081 ft 453 kts
2026-05-04 05:21 -28.71792 153.31383 35064 ft 453 kts
2026-05-04 05:22 -28.65749 153.33489 35078 ft 453 kts
2026-05-04 05:22 -28.59721 153.35585 35081 ft 453 kts
2026-05-04 05:23 -28.53687 153.37680 35099 ft 453 kts
2026-05-04 05:23 -28.47647 153.39772 35064 ft 454 kts
2026-05-04 05:24 -28.41644 153.41852 35088 ft 453 kts
2026-05-04 05:24 -28.35564 153.43961 35080 ft 454 kts
2026-05-04 05:25 -28.29560 153.46037 35076 ft 454 kts
2026-05-04 05:25 -28.23503 153.48128 35077 ft 454 kts
2026-05-04 05:26 -28.17455 153.50103 34752 ft 445 kts 359°
2026-05-04 05:26 -28.14454 153.50501 34366 ft 424 kts 349°
2026-05-04 05:26 -28.11539 153.50470 33997 ft 417 kts 348°
2026-05-04 05:27 -28.08653 153.50406 33541 ft 413 kts 348°
2026-05-04 05:28 -27.89071 153.50115 30770 ft 391 kts 350°
2026-05-04 05:29 -27.86362 153.50085 30378 ft 389 kts 350°
2026-05-04 05:29 -27.83665 153.50056 29981 ft 386 kts 350°
2026-05-04 05:29 -27.80990 153.50027 29543 ft 383 kts 351°
2026-05-04 05:29 -27.78336 153.49999 29128 ft 380 kts 351°
2026-05-04 05:31 -27.60194 153.49799 26425 ft 371 kts 352°
2026-05-04 05:31 -27.57623 153.49773 26039 ft 368 kts 352°
2026-05-04 05:32 -27.55070 153.49747 25660 ft 366 kts 352°
2026-05-04 05:32 -27.52527 153.49720 25275 ft 364 kts 352°
2026-05-04 05:32 -27.49977 153.49693 24724 ft 368 kts 353°
2026-05-04 05:33 -27.44872 153.49647 23925 ft 366 kts 353°
2026-05-04 05:33 -27.42321 153.49624 23487 ft 365 kts 353°
2026-05-04 05:33 -27.39794 153.49602 23071 ft 362 kts 353°
2026-05-04 05:33 -27.37284 153.49580 22676 ft 359 kts 353°
2026-05-04 05:34 -27.34794 153.49557 22295 ft 356 kts 353°
2026-05-04 05:34 -27.32325 153.49535 21921 ft 353 kts 354°
2026-05-04 05:34 -27.29868 153.49512 21550 ft 351 kts 354°
2026-05-04 05:34 -27.27437 153.49489 21187 ft 348 kts 354°
2026-05-04 05:35 -27.25026 153.49467 20821 ft 346 kts 354°
2026-05-04 05:35 -27.22618 153.49445 20445 ft 344 kts 354°
2026-05-04 05:35 -27.20238 153.49423 20050 ft 339 kts 354°
2026-05-04 05:35 -27.17897 153.49403 19689 ft 333 kts 354°
2026-05-04 05:36 -27.15601 153.49383 19330 ft 327 kts 354°
2026-05-04 05:36 -27.13359 153.49362 19000 ft 324 kts 354°
2026-05-04 05:36 -27.11114 153.49341 18667 ft 321 kts 354°
2026-05-04 05:36 -27.08875 153.49318 18326 ft 324 kts 355°
2026-05-04 05:37 -27.06615 153.49295 17934 ft 327 kts 355°
2026-05-04 05:37 -27.04344 153.49274 17559 ft 322 kts 355°
2026-05-04 05:37 -27.02099 153.49255 17200 ft 316 kts 355°
2026-05-04 05:38 -26.97729 153.49215 16535 ft 312 kts 355°
2026-05-04 05:38 -26.95542 153.49193 16222 ft 318 kts 356°
2026-05-04 05:38 -26.94071 153.49178 16001 ft 320 kts 356°
2026-05-04 05:38 -26.91861 153.49159 15648 ft 315 kts 356°
2026-05-04 05:39 -26.89685 153.49140 15291 ft 310 kts 356°
2026-05-04 05:39 -26.85368 153.49100 14577 ft 309 kts 356°
2026-05-04 05:39 -26.82514 153.49073 14124 ft 310 kts 357°
2026-05-04 05:40 -26.78885 153.49040 13521 ft 309 kts 357°
2026-05-04 05:40 -26.76750 153.49021 13168 ft 304 kts 358°
2026-05-04 05:40 -26.74642 153.48989 12842 ft 303 kts 354°
2026-05-04 05:41 -26.72697 153.48422 12498 ft 303 kts 332°
2026-05-04 05:41 -26.70872 153.47250 12181 ft 302 kts 327°
2026-05-04 05:41 -26.69106 153.45991 11838 ft 302 kts 326°
2026-05-04 05:41 -26.67341 153.44712 11502 ft 302 kts 326°
2026-05-04 05:42 -26.65581 153.43440 11170 ft 302 kts 327°
2026-05-04 05:42 -26.63815 153.42174 10841 ft 302 kts 327°
2026-05-04 05:42 -26.62036 153.40908 10477 ft 303 kts 327°
2026-05-04 05:42 -26.60265 153.39653 10283 ft 297 kts 328°
2026-05-04 05:43 -26.58542 153.38436 10102 ft 288 kts 328°
2026-05-04 05:43 -26.56877 153.37261 9926 ft 280 kts 328°
2026-05-04 05:43 -26.55244 153.36110 9612 ft 276 kts 328°
2026-05-04 05:45 -26.44203 153.27753 7739 ft 275 kts 313°
2026-05-04 05:45 -26.42894 153.26164 7513 ft 280 kts 313°
2026-05-04 05:47 -26.35019 153.14354 6029 ft 262 kts 276°
2026-05-04 05:47 -26.34794 153.12396 5933 ft 248 kts 276°
2026-05-04 05:47 -26.34575 153.10530 5827 ft 236 kts 276°
2026-05-04 05:48 -26.34363 153.08772 5725 ft 221 kts 276°
2026-05-04 05:48 -26.34158 153.07086 5236 ft 224 kts 276°
2026-05-04 05:48 -26.34105 153.05400 4952 ft 214 kts 251°
2026-05-04 05:48 -26.34788 153.04018 4800 ft 199 kts 231°
2026-05-04 05:49 -26.35604 153.02770 4607 ft 199 kts 232°
2026-05-04 05:49 -26.36426 153.01511 4442 ft 202 kts 230°
2026-05-04 05:49 -26.37267 153.00247 4275 ft 204 kts 225°
2026-05-04 05:49 -26.38419 152.99391 4107 ft 200 kts 200°
2026-05-04 05:51 -26.46991 152.97754 2792 ft 180 kts 142°
2026-05-04 05:51 -26.47948 152.98561 2575 ft 165 kts 142°
2026-05-04 05:52 -26.48826 152.99310 2339 ft 154 kts 142°
2026-05-04 05:52 -26.49689 153.00047 2152 ft 159 kts 141°
2026-05-04 05:52 -26.50564 153.00797 1990 ft 158 kts 142°
2026-05-04 05:52 -26.51408 153.01519 1747 ft 148 kts 141°
2026-05-04 05:53 -26.52208 153.02204 1558 ft 142 kts 142°
2026-05-04 05:54 -26.57731 153.06960 171 ft 138 kts 142°
2026-05-04 05:55 -26.58504 153.07594 31 ft 139 kts 142°
2026-05-04 05:55 -26.59150 153.08164 18 ft 88 kts 143°
2026-05-04 05:55 -26.59492 153.08458 20 ft 51 kts 143°
2026-05-04 05:55 -26.59755 153.08682 23 ft 44 kts 142°
2026-05-04 05:56 -26.59942 153.08842 23 ft 24 kts 141°
2026-05-04 05:56 -26.60062 153.08918 25 ft 17 kts 191°
2026-05-04 05:56 -26.60110 153.08883 24 ft 0 kts 229°
2026-05-04 05:57 -26.60112 153.08880 23 ft 3 kts 229°
2026-05-04 05:57 -26.60141 153.08839 24 ft 8 kts 228°
2026-05-04 05:57 -26.60198 153.08835 26 ft 10 kts 162°
2026-05-04 05:57 -26.60266 153.08889 27 ft 13 kts 142°
2026-05-04 05:58 -26.60334 153.08947 29 ft 12 kts 143°
2026-05-04 05:58 -26.60400 153.09004 27 ft 12 kts 142°
2026-05-04 05:58 -26.60465 153.09060 29 ft 12 kts 142°
2026-05-04 05:58 -26.60541 153.09066 27 ft 11 kts 191°
2026-05-04 05:59 -26.60578 153.09039 30 ft 2 kts 279°
2026-05-04 05:59 -26.60575 153.09022 29 ft 2 kts 284°
2026-05-04 05:59 -26.60571 153.09005 26 ft 2 kts 284°
2026-05-04 05:59 -26.60566 153.08984 28 ft 3 kts 284°
2026-05-04 06:00 -26.60561 153.08964 26 ft 3 kts 284°
2026-05-04 06:00 -26.60557 153.08944 28 ft 3 kts 284°
2026-05-04 06:00 -26.60555 153.08936 27 ft 0 kts 278°